[[{"header":{"parameterUnit":"m.s-1","parameterCategory":1,"la1":30.2991,"la2":30.254,"lo1":-89.0895,"lo2":-89.0444,"dy":0.0017,"dx":0.0017,"nx":28,"ny":28,"refTime":"2024-06-11T09:00:00:Z","depth":0,"parameterNumber":2,"parameterNumberName":"U-component_of_WINDS"},"data":[0,0,0,0,0,0,0,0,0,0,0,0,0,0,0,0,0,0,0,0,0,0,0,0,0,0,0,0,0,0,0,0,0,0,0,0,0,0,0,0,0,0,0,0,0,0,0,0,0,0,0,0,0,0,0,0,0,0,0.4342,0.4342,0,0.4351,0.4351,0.4351,0.4357,0.4357,0.4357,0.4357,0.4366,0.4366,0.4367,0,0,0,0,0,0,0,0,0,0,0,0,0,0.4329,0.433,0.4342,0.4342,0.4342,0.4351,0.4351,0.4351,0.4357,0.4357,0.4357,0.4357,0.4366,0.4366,0.4367,0,0,0,0,0,0,0,0,0,0,0,0,0,0.4336,0.433,0.4342,0.4346,0.4346,0.4351,0.4351,0.4351,0.4357,0.4357,0.4357,0.4357,0.4366,0.4366,0.4367,0.4368,0,0,0.4368,0.4368,0,0,0,0,0,0,0,0,0.4336,0.4337,0.4345,0.4346,0.4346,0.4353,0.435,0.4357,0.4357,0.4353,0.4357,0.4357,0.4362,0.4362,0.4364,0.4369,0.4369,0.4368,0.4368,0.4368,0.4368,0,0,0,0,0,0,0,0.4335,0.4336,0.4346,0.4345,0.4346,0.4347,0.4348,0.4352,0.4357,0.4353,0.4353,0.4355,0.4362,0.4364,0.4364,0.4369,0.4368,0.4368,0.4368,0.4368,0.4377,0.4377,0,0,0,0,0,0,0.4334,0.4336,0.4345,0.4346,0.4341,0.4348,0.4349,0.4351,0.4357,0.4358,0.4354,0.4355,0.4363,0.4364,0.4365,0.4367,0.4368,0.4369,0.4369,0.4377,0.4377,0.4377,0,0,0,0,0,0,0.4334,0.4335,0.4345,0.4341,0.4342,0.4348,0.435,0.4351,0.4353,0.4358,0.4359,0.4355,0.4363,0.4364,0.4368,0.4368,0.4369,0.4369,0.4377,0.4377,0.4377,0.4372,0,0,0,0,0,0,0.4334,0.4335,0.4335,0.4341,0.4343,0.4347,0.435,0.4351,0.4353,0.4354,0.4359,0.436,0.4363,0.4367,0.4368,0.4368,0.4369,0.4377,0.4377,0.4377,0.4372,0.4372,0.4372,0,0,0,0,0,0.4333,0.4334,0.4335,0.4336,0.4343,0.4347,0.4348,0.4352,0.4353,0.4354,0.4357,0.436,0.4368,0.4367,0.4368,0.4369,0.4377,0.4377,0.4377,0.4373,0.4372,0.4372,0,0,0,0,0,0,0.4327,0.4334,0.4336,0.4339,0.4342,0.4348,0.4349,0.4352,0.4355,0.4355,0.436,0.4361,0.4364,0.4367,0.4366,0.4371,0.4372,0.4373,0.4369,0.4369,0.4368,0.4368,0.437,0,0,0,0,0,0.4327,0.4329,0.4335,0.4337,0.4338,0.4343,0.4345,0.4348,0.4352,0.4354,0.4358,0.4362,0.4365,0.4367,0.4371,0.4373,0.4375,0.4374,0.4374,0.4374,0.4374,0.4376,0.4376,0.4377,0.4377,0.4377,0,0,0.4324,0.4329,0.433,0.4336,0.4339,0.4342,0.4345,0.4347,0.435,0.4354,0.4357,0.4361,0.4365,0.4369,0.437,0.4371,0.4374,0.4374,0.4373,0.4373,0.4376,0.4376,0.4375,0.4377,0.4377,0.4377,0,0,0.4322,0.4325,0.4327,0.4331,0.4336,0.4339,0.434,0.4345,0.4348,0.4351,0.4355,0.4358,0.4364,0.4367,0.4369,0.437,0.4372,0.4371,0.4369,0.4371,0.4371,0.4371,0.4371,0.4371,0.4371,0.4371,0.4371,0,0.4319,0.4323,0.4328,0.4331,0.4333,0.4338,0.434,0.4343,0.4349,0.4351,0.4352,0.4359,0.4363,0.4367,0.4367,0.4369,0.437,0.437,0.4371,0.4371,0.4371,0.4371,0.4371,0.4371,0.4371,0.4371,0.4371,0,0.4319,0.4322,0.4323,0.4329,0.4332,0.4334,0.4339,0.4342,0.4345,0.4348,0.4352,0.4357,0.4361,0.4363,0.4365,0.4368,0.4368,0.437,0.4371,0.437,0.4371,0.4371,0.437,0.437,0.4371,0.4371,0,0,0.4312,0.4322,0.4322,0.4325,0.4331,0.4334,0.4337,0.4341,0.4343,0.4348,0.435,0.4356,0.4358,0.4361,0.4364,0.4366,0.4366,0.4368,0.4368,0.4367,0.4369,0.4368,0.4368,0.4368,0.4368,0.4368,0.4369,0,0.4311,0.4316,0.4321,0.4324,0.4328,0.4333,0.4335,0.434,0.4344,0.4347,0.4351,0.4355,0.4357,0.4359,0.4361,0.4366,0.4367,0.4366,0.4371,0.4371,0.4369,0.4368,0.4366,0.4366,0.4369,0.4369,0.4369,0,0.4309,0.4314,0.4318,0.4325,0.4326,0.4328,0.4333,0.4337,0.4342,0.4345,0.4349,0.4352,0.4356,0.4358,0.4363,0.4363,0.4365,0.4368,0.4368,0.4368,0.4369,0.4368,0.4366,0.4366,0.4369,0.4369,0.4369,0,0.4304,0.4311,0.4314,0.4317,0.4325,0.4326,0.433,0.4335,0.4338,0.4343,0.4345,0.435,0.4353,0.4357,0.4362,0.4363,0.4367,0.4369,0.437,0.437,0.437,0.437,0.4369,0.4372,0.4372,0.4372,0.4372,0,0.4301,0.4304,0.4312,0.4314,0.4317,0.4323,0.4326,0.433,0.4335,0.4338,0.4343,0.4346,0.4353,0.4357,0.4361,0.4365,0.4366,0.4369,0.437,0.4368,0.4368,0.437,0.437,0.4372,0.4372,0.4372,0.4372,0,0.4295,0.4301,0.4305,0.4313,0.4315,0.4317,0.4324,0.4326,0.4331,0.4335,0.4336,0.4343,0.4348,0.4354,0.4361,0.4364,0.4367,0.4369,0.4365,0.4366,0.4366,0.4366,0.4366,0.4366,0.4369,0.4369,0.4369,0,0.4293,0.4295,0.4303,0.4306,0.4309,0.4313,0.4316,0.4323,0.4326,0.4333,0.4335,0.434,0.4345,0.4353,0.4358,0.4364,0.4366,0.4365,0.4366,0.4365,0.4366,0.4365,0.4366,0.4365,0.4365,0.4364,0.4364,0,0.4288,0.4292,0.4296,0.4301,0.4305,0.431,0.4315,0.4317,0.4324,0.4327,0.4333,0.4336,0.4344,0.4349,0.4356,0.436,0.4363,0.4364,0.4365,0.4363,0.436,0.4362,0.4364,0.4364,0.4364,0.4364,0.4364,0.4364,0.4284,0.4286,0.4293,0.4297,0.4302,0.4307,0.431,0.4315,0.4319,0.4326,0.433,0.4335,0.4341,0.435,0.4354,0.4359,0.436,0.4361,0.4361,0.4361,0.436,0.436,0.436,0.436,0.436,0.436,0.436,0,0.428,0.4284,0.4289,0.4296,0.43,0.4303,0.4309,0.4312,0.4317,0.4323,0.4328,0.4334,0.434,0.4347,0.4353,0.4355,0.4357,0.4357,0.4356,0.4357,0.4359,0.4358,0.4355,0.4355,0.4355,0.4355,0.4355,0.4355,0.4278,0.4282,0.4286,0.4292,0.4297,0.4302,0.4305,0.431,0.4315,0.4322,0.4326,0.4331,0.4337,0.4344,0.435,0.4352,0.4354,0.4353,0.4355,0.4356,0.4357,0.4357,0.4356,0.4353,0.4353,0.4353,0.4353,0.4353]},{"header":{"parameterUnit":"m.s-1","parameterCategory":1,"la1":30.2991,"la2":30.254,"lo1":-89.0895,"lo2":-89.0444,"dy":0.0017,"dx":0.0017,"nx":28,"ny":28,"refTime":"2024-06-11T09:00:00:Z","depth":0,"parameterNumber":3,"parameterNumberName":"V-component_of_WINDS"},"data":[0,0,0,0,0,0,0,0,0,0,0,0,0,0,0,0,0,0,0,0,0,0,0,0,0,0,0,0,0,0,0,0,0,0,0,0,0,0,0,0,0,0,0,0,0,0,0,0,0,0,0,0,0,0,0,0,0,0,-0.1419,-0.1421,0,-0.1608,-0.161,-0.1612,-0.1702,-0.1702,-0.1701,-0.1701,-0.1901,-0.1907,-0.1912,0,0,0,0,0,0,0,0,0,0,0,0,0,-0.1141,-0.1145,-0.1419,-0.1421,-0.1424,-0.1608,-0.161,-0.1613,-0.1702,-0.1702,-0.1701,-0.1701,-0.19,-0.1906,-0.1913,0,0,0,0,0,0,0,0,0,0,0,0,0,-0.1289,-0.1147,-0.1419,-0.149,-0.1498,-0.1607,-0.161,-0.1614,-0.1702,-0.1702,-0.1701,-0.1701,-0.1898,-0.1905,-0.1914,-0.1968,0,0,-0.1939,-0.1942,0,0,0,0,0,0,0,0,-0.128,-0.1299,-0.1477,-0.1485,-0.1495,-0.1631,-0.1586,-0.1733,-0.1702,-0.1625,-0.1701,-0.1701,-0.1812,-0.1827,-0.1863,-0.1977,-0.1986,-0.1939,-0.1944,-0.1948,-0.195,0,0,0,0,0,0,0,-0.127,-0.1291,-0.1494,-0.148,-0.149,-0.1515,-0.1535,-0.1614,-0.1717,-0.1631,-0.1638,-0.1659,-0.1817,-0.1855,-0.1869,-0.1989,-0.1939,-0.1946,-0.1951,-0.1954,-0.2157,-0.2157,0,0,0,0,0,0,-0.1247,-0.1282,-0.1488,-0.15,-0.1385,-0.152,-0.1543,-0.1588,-0.1717,-0.1736,-0.1659,-0.1663,-0.1841,-0.1859,-0.1876,-0.1948,-0.1948,-0.1955,-0.196,-0.2156,-0.2157,-0.2157,0,0,0,0,0,0,-0.1241,-0.1265,-0.148,-0.1393,-0.1422,-0.1525,-0.1574,-0.1591,-0.163,-0.1738,-0.1757,-0.1679,-0.1842,-0.1865,-0.1944,-0.1956,-0.1959,-0.1966,-0.2156,-0.2156,-0.2157,-0.2092,0,0,0,0,0,0,-0.1233,-0.1262,-0.1282,-0.1393,-0.1426,-0.1543,-0.1575,-0.1595,-0.1643,-0.1649,-0.1761,-0.178,-0.1844,-0.1931,-0.1952,-0.1968,-0.1973,-0.2155,-0.2156,-0.2157,-0.2094,-0.2091,-0.2088,0,0,0,0,0,-0.1222,-0.1258,-0.1283,-0.1307,-0.1454,-0.1544,-0.1563,-0.1634,-0.1643,-0.1666,-0.1735,-0.1776,-0.1951,-0.1938,-0.1963,-0.1981,-0.2154,-0.2156,-0.2157,-0.2095,-0.2091,-0.2088,0,0,0,0,0,0,-0.1149,-0.1274,-0.1303,-0.1375,-0.1447,-0.1558,-0.1589,-0.1628,-0.1701,-0.1704,-0.1791,-0.1816,-0.1887,-0.1942,-0.1926,-0.204,-0.2057,-0.2063,-0.2002,-0.1999,-0.1996,-0.1982,-0.198,0,0,0,0,0,-0.1141,-0.1201,-0.1308,-0.1361,-0.1396,-0.1485,-0.1528,-0.1575,-0.1655,-0.1687,-0.1762,-0.184,-0.1913,-0.1959,-0.2032,-0.2102,-0.2128,-0.2126,-0.2123,-0.212,-0.2125,-0.2167,-0.2167,-0.2161,-0.2161,-0.2161,0,0,-0.1126,-0.1201,-0.1235,-0.1349,-0.1411,-0.1473,-0.1511,-0.1576,-0.1624,-0.1698,-0.1777,-0.1834,-0.1927,-0.2001,-0.2038,-0.205,-0.2132,-0.2122,-0.2119,-0.2125,-0.2168,-0.2168,-0.2169,-0.2161,-0.2161,-0.2161,0,0,-0.113,-0.1192,-0.1243,-0.1304,-0.1396,-0.1456,-0.1467,-0.1572,-0.1613,-0.1692,-0.1749,-0.1808,-0.1931,-0.1995,-0.2043,-0.2069,-0.2111,-0.2091,-0.2076,-0.2116,-0.2117,-0.2118,-0.2128,-0.213,-0.2095,-0.2095,-0.2095,0,-0.11,-0.1194,-0.1266,-0.1327,-0.1375,-0.1442,-0.1496,-0.1552,-0.1664,-0.1698,-0.1708,-0.1863,-0.193,-0.2021,-0.2027,-0.2063,-0.2081,-0.2079,-0.211,-0.2112,-0.2114,-0.2125,-0.2128,-0.2092,-0.2092,-0.2092,-0.2093,0,-0.1153,-0.1217,-0.1248,-0.1352,-0.1404,-0.1461,-0.1543,-0.1587,-0.163,-0.1689,-0.1769,-0.1852,-0.1942,-0.1967,-0.2011,-0.2064,-0.2068,-0.2093,-0.2112,-0.211,-0.2122,-0.2127,-0.2087,-0.2088,-0.2089,-0.209,0,0,-0.1118,-0.1258,-0.1269,-0.1317,-0.1423,-0.1475,-0.1535,-0.1621,-0.1658,-0.1733,-0.1787,-0.1889,-0.1912,-0.1967,-0.2018,-0.2052,-0.2069,-0.2074,-0.2077,-0.2071,-0.2133,-0.2114,-0.2118,-0.2096,-0.2097,-0.2098,-0.2126,0,-0.1137,-0.1246,-0.1311,-0.1394,-0.1455,-0.1519,-0.1572,-0.1644,-0.1699,-0.1761,-0.1824,-0.1894,-0.1919,-0.1953,-0.199,-0.2058,-0.2083,-0.2057,-0.2149,-0.2151,-0.2124,-0.2124,-0.2105,-0.2127,-0.2131,-0.2132,-0.2132,0,-0.1175,-0.1245,-0.1333,-0.1431,-0.146,-0.1506,-0.159,-0.1647,-0.173,-0.1768,-0.1828,-0.1879,-0.1947,-0.1958,-0.2054,-0.2035,-0.2077,-0.2116,-0.2119,-0.2131,-0.2142,-0.2137,-0.2136,-0.214,-0.214,-0.2139,-0.2139,0,-0.1141,-0.1258,-0.1326,-0.1365,-0.1481,-0.1512,-0.1562,-0.1645,-0.1692,-0.1766,-0.1798,-0.1879,-0.1925,-0.1987,-0.206,-0.2061,-0.2148,-0.2166,-0.2184,-0.2182,-0.2201,-0.2199,-0.2207,-0.2225,-0.2225,-0.2225,-0.2225,0,-0.1156,-0.1208,-0.1312,-0.1354,-0.1414,-0.1489,-0.1547,-0.1603,-0.1676,-0.1731,-0.1792,-0.1843,-0.1934,-0.1997,-0.2055,-0.2125,-0.2145,-0.218,-0.2194,-0.2175,-0.217,-0.2204,-0.2205,-0.2226,-0.2226,-0.2225,-0.2225,0,-0.1129,-0.1201,-0.1279,-0.1382,-0.1409,-0.1449,-0.1538,-0.1582,-0.164,-0.1709,-0.173,-0.1822,-0.1899,-0.1976,-0.2081,-0.212,-0.219,-0.2209,-0.2161,-0.2169,-0.2183,-0.2181,-0.2214,-0.2223,-0.2233,-0.2233,-0.2232,0,-0.1135,-0.1176,-0.1282,-0.1322,-0.137,-0.1434,-0.1482,-0.1558,-0.1605,-0.1702,-0.1735,-0.1815,-0.1884,-0.2004,-0.2082,-0.2162,-0.2185,-0.2191,-0.2198,-0.2177,-0.2187,-0.2184,-0.2189,-0.2189,-0.2188,-0.2188,-0.2188,0,-0.1137,-0.117,-0.1236,-0.1313,-0.1368,-0.1433,-0.1501,-0.1531,-0.162,-0.1671,-0.1749,-0.1801,-0.1907,-0.1987,-0.2076,-0.2131,-0.2175,-0.2184,-0.2193,-0.2174,-0.2144,-0.2161,-0.2154,-0.2184,-0.2184,-0.2185,-0.2185,-0.2185,-0.1128,-0.1167,-0.1247,-0.1318,-0.1376,-0.1438,-0.1484,-0.1546,-0.1612,-0.1702,-0.1743,-0.1821,-0.1904,-0.2028,-0.2081,-0.2145,-0.2157,-0.2169,-0.2173,-0.2175,-0.217,-0.2133,-0.2162,-0.2162,-0.2162,-0.2162,-0.2162,0,-0.1135,-0.1189,-0.1253,-0.1344,-0.14,-0.1433,-0.151,-0.1555,-0.1622,-0.1694,-0.1759,-0.1849,-0.1926,-0.2009,-0.2092,-0.2127,-0.215,-0.2147,-0.2146,-0.2158,-0.2154,-0.2139,-0.2127,-0.2127,-0.2127,-0.2127,-0.2127,-0.2127,-0.1144,-0.1212,-0.1254,-0.1352,-0.1407,-0.1482,-0.1523,-0.158,-0.1638,-0.1734,-0.1798,-0.185,-0.1927,-0.2016,-0.2089,-0.2112,-0.214,-0.2131,-0.216,-0.2155,-0.2158,-0.216,-0.2146,-0.2137,-0.2137,-0.2158,-0.2158,-0.2158]}]]